Simultaneous Nadir Overpasses (SNOs) Predictions

Prediction of SNOs between GOES-16 and LANDSAT-8 Satellite Orbit:

Table of predicted SNOs for the next 14.0 days since TLE Epoch: 8/22/2020
Index Date Time (GOES-16) GOES-16 Lat,Lon LANDSAT-8 Lat,Lon Distance(km) Time Diff (sec)
1 08/22/2020 15:06:34 0.00, -75.20 -0.26, -73.90 146.62 80
2 08/23/2020 03:30:39 -0.01, -75.19 -0.82, -79.10 444.58 80
3 08/24/2020 14:54:24 -0.00, -75.21 -0.89, -70.95 483.68 80
4 08/25/2020 03:18:29 -0.01, -75.20 -0.19, -76.15 107.42 80
5 08/27/2020 03:03:39 -0.01, -75.21 0.45, -73.20 230.13 80
6 08/27/2020 15:27:34 0.02, -75.23 0.70, -78.34 354.40 80
7 08/29/2020 15:15:24 0.02, -75.25 0.06, -75.39 16.33 80
8 08/31/2020 15:00:34 0.01, -75.28 -0.57, -72.44 322.62 80
9 09/01/2020 03:24:39 -0.02, -75.28 -0.50, -77.63 267.80 80
10 09/03/2020 03:09:49 -0.02, -75.31 0.14, -74.68 72.19 80
